User: anonymous   Login
Location: Valdosta
(30.8330°N, 83.2790°W)
Time: 07:06:20
(UTC-05:00)
Language:

Oscar 19 - Orbit

View from above orbital plane
View from above orbital plane
View from above satellite
View from above satellite

Ground track
Ground track

The orbit data is extracted from the following two-line orbital elements,

1 20442U 90005G   16042.80752463  .00000092  00000-0  49627-4 0  9997
2 20442  98.5344 339.5749 0012165 154.7786 205.3995 14.32796652361255
Epoch (UTC): 11 February 2016 19:22:50
Eccentricity: 0.0012165
inclination: 98.5344°
perigee height: 773 km
apogee height: 791 km
right ascension of ascending node: 339.5749°
argument of perigee: 154.7786°
revolutions per day: 14.32796652
mean anomaly at epoch: 205.3995°
orbit number at epoch: 36125

The dashed part of the orbit path shows where the satellite is in the earth's shadow,  

DLR